[[{"header":{"parameterUnit":"m.s-1","parameterCategory":1,"la1":30.2991,"la2":30.254,"lo1":-89.0895,"lo2":-89.0444,"dx":0.0017,"dy":0.0017,"nx":28,"ny":28,"refTime":"2023-01-07T03:00:00:Z","depth":0,"parameterNumber":2,"parameterNumberName":"U-component_of_WINDS"},"data":[0,0,0,0,0,0,0,0,0,0,0,0,0,0,0,0,0,0,0,0,0,0,0,0,0,0,0,0,0,0,0,0,0,0,0,0,0,0,0,0,0,0,0,0,0,0,0,0,0,0,0,0,0,0,0,0,0,0,0.7346,0.7348,0,0.7456,0.7457,0.7458,0.7487,0.7486,0.7486,0.7485,0.7599,0.7603,0.7607,0,0,0,0,0,0,0,0,0,0,0,0,0,0.7164,0.7167,0.7346,0.7348,0.7349,0.7456,0.7457,0.7459,0.7487,0.7486,0.7486,0.7485,0.7598,0.7602,0.7607,0,0,0,0,0,0,0,0,0,0,0,0,0,0.7255,0.7168,0.7346,0.7376,0.738,0.7455,0.7457,0.7459,0.7487,0.7486,0.7485,0.7484,0.7597,0.7602,0.7608,0.7662,0,0,0.7624,0.7627,0,0,0,0,0,0,0,0,0.725,0.7262,0.737,0.7374,0.7379,0.7457,0.7435,0.7527,0.7488,0.7447,0.7485,0.7484,0.7553,0.7562,0.7585,0.7667,0.7672,0.7625,0.7628,0.7631,0.7632,0,0,0,0,0,0,0,0.7244,0.7257,0.739,0.7372,0.7377,0.7385,0.7397,0.7452,0.7504,0.745,0.7452,0.7465,0.7555,0.7579,0.7588,0.7674,0.7625,0.763,0.7633,0.7635,0.7806,0.7807,0,0,0,0,0,0,0.7232,0.7252,0.7386,0.7393,0.731,0.7389,0.7402,0.7433,0.7504,0.7513,0.7466,0.7466,0.757,0.7581,0.7592,0.766,0.763,0.7636,0.7639,0.7805,0.7806,0.7807,0,0,0,0,0,0,0.7228,0.7244,0.7382,0.7323,0.7341,0.7393,0.7427,0.7435,0.746,0.7515,0.7525,0.7481,0.757,0.7584,0.7644,0.7664,0.7638,0.7643,0.7803,0.7805,0.7807,0.7796,0,0,0,0,0,0,0.7223,0.7242,0.7263,0.7323,0.7344,0.7431,0.7428,0.7438,0.7469,0.747,0.7532,0.7542,0.757,0.7636,0.7649,0.7671,0.7647,0.7802,0.7804,0.7806,0.7795,0.7797,0.7799,0,0,0,0,0,0.7216,0.7256,0.7263,0.728,0.7371,0.7432,0.7445,0.7476,0.747,0.7492,0.7528,0.754,0.766,0.7641,0.7657,0.7681,0.78,0.7803,0.7806,0.7794,0.7797,0.7799,0,0,0,0,0,0,0.7197,0.7264,0.7274,0.7334,0.7377,0.7437,0.7465,0.7479,0.7525,0.7524,0.7562,0.7576,0.7633,0.7663,0.7642,0.7737,0.773,0.7736,0.7715,0.7719,0.7721,0.7712,0.7652,0,0,0,0,0,0.7199,0.7243,0.73,0.7348,0.7369,0.7413,0.7441,0.7462,0.7508,0.7527,0.7567,0.7612,0.766,0.7691,0.7739,0.7799,0.7813,0.7823,0.7826,0.7827,0.7832,0.7866,0.7871,0.7817,0.7817,0.7816,0,0,0.7205,0.7248,0.7273,0.7345,0.7381,0.7425,0.7428,0.7476,0.751,0.7535,0.7593,0.7624,0.7677,0.7738,0.7766,0.7764,0.785,0.7831,0.7832,0.7836,0.787,0.7875,0.7879,0.7818,0.7818,0.7818,0,0,0.7239,0.7275,0.7319,0.7355,0.7409,0.7438,0.7449,0.7507,0.7528,0.7588,0.7607,0.7649,0.773,0.7767,0.7797,0.7845,0.7858,0.7859,0.7871,0.7904,0.7908,0.7912,0.7929,0.7935,0.7864,0.7864,0.7864,0,0.724,0.7308,0.734,0.7387,0.7418,0.7442,0.7486,0.752,0.7587,0.7608,0.7605,0.7708,0.7746,0.7815,0.7826,0.785,0.7863,0.7852,0.7905,0.7909,0.7914,0.793,0.7937,0.7864,0.7864,0.7864,0.7864,0,0.7306,0.7353,0.7382,0.7445,0.7479,0.7525,0.7565,0.7596,0.7614,0.7643,0.7704,0.775,0.7806,0.7825,0.7843,0.7897,0.7894,0.7897,0.7891,0.7918,0.7934,0.7941,0.7863,0.7863,0.7864,0.7864,0,0,0.7331,0.7411,0.7421,0.745,0.7511,0.7549,0.7595,0.765,0.7676,0.7722,0.7762,0.7831,0.7834,0.7868,0.789,0.7919,0.7954,0.792,0.7921,0.7924,0.8017,0.8013,0.802,0.7963,0.7965,0.7966,0.8012,0,0.7372,0.7455,0.7486,0.7555,0.7598,0.7622,0.7663,0.7705,0.7734,0.7776,0.7809,0.7856,0.7858,0.7878,0.7908,0.7944,0.7973,0.7941,0.8002,0.8003,0.7987,0.8029,0.8025,0.8067,0.8019,0.802,0.8021,0,0.7431,0.7477,0.7549,0.7605,0.7625,0.7661,0.7713,0.7753,0.7802,0.7821,0.7858,0.7879,0.7929,0.792,0.799,0.7967,0.7994,0.8016,0.8018,0.8025,0.8013,0.8036,0.8081,0.8087,0.8031,0.803,0.8029,0,0.7441,0.7521,0.7575,0.7599,0.7665,0.769,0.7719,0.7767,0.7798,0.7845,0.7865,0.7917,0.7946,0.7986,0.802,0.801,0.8087,0.8081,0.8105,0.8104,0.812,0.8118,0.8169,0.8137,0.8137,0.8137,0.8137,0,0.7484,0.7528,0.758,0.7613,0.7663,0.7698,0.7746,0.7777,0.7819,0.7859,0.7883,0.792,0.7963,0.8006,0.8034,0.8088,0.81,0.8118,0.8124,0.8115,0.8113,0.8133,0.8131,0.8139,0.8138,0.8138,0.8138,0,0.7504,0.754,0.7601,0.7659,0.7674,0.7708,0.7758,0.7792,0.7822,0.7872,0.7886,0.7934,0.7985,0.8024,0.8091,0.8109,0.8167,0.8174,0.815,0.8153,0.8175,0.8172,0.824,0.8251,0.8212,0.8212,0.8213,0,0.7528,0.7562,0.7624,0.7652,0.768,0.7725,0.7757,0.7793,0.7825,0.7884,0.791,0.7963,0.8007,0.8089,0.813,0.8182,0.819,0.821,0.8198,0.8188,0.819,0.8188,0.8191,0.8212,0.8212,0.8212,0.8213,0,0.7568,0.7585,0.7629,0.7679,0.7716,0.7758,0.78,0.7822,0.7866,0.7901,0.7954,0.7988,0.8056,0.8109,0.8165,0.8195,0.8212,0.8216,0.8224,0.8215,0.82,0.8208,0.8154,0.8214,0.8214,0.8214,0.8214,0.8214,0.7591,0.7622,0.767,0.7719,0.7754,0.7793,0.7827,0.7861,0.7906,0.7963,0.7982,0.8037,0.8085,0.8161,0.8193,0.8237,0.8236,0.8248,0.8251,0.8254,0.8253,0.8193,0.8247,0.8247,0.8247,0.8247,0.8247,0,0.7632,0.7664,0.7708,0.7766,0.7804,0.7815,0.7863,0.7894,0.7941,0.7985,0.8028,0.8089,0.814,0.8185,0.8238,0.8264,0.8273,0.8277,0.8276,0.8282,0.825,0.8237,0.8269,0.8269,0.8269,0.8269,0.8269,0.8269,0.7657,0.771,0.7732,0.7804,0.7836,0.7889,0.7915,0.7951,0.7986,0.8052,0.8094,0.8123,0.8168,0.8224,0.8272,0.8284,0.8303,0.8305,0.8318,0.8287,0.8285,0.8282,0.827,0.8308,0.8309,0.8347,0.8347,0.8348]},{"header":{"parameterUnit":"m.s-1","parameterCategory":1,"la1":30.2991,"la2":30.254,"lo1":-89.0895,"lo2":-89.0444,"dx":0.0017,"dy":0.0017,"nx":28,"ny":28,"refTime":"2023-01-07T03:00:00:Z","depth":0,"parameterNumber":3,"parameterNumberName":"V-component_of_WINDS"},"data":[0,0,0,0,0,0,0,0,0,0,0,0,0,0,0,0,0,0,0,0,0,0,0,0,0,0,0,0,0,0,0,0,0,0,0,0,0,0,0,0,0,0,0,0,0,0,0,0,0,0,0,0,0,0,0,0,0,0,0.2495,0.2495,0,0.2465,0.2465,0.2464,0.244,0.244,0.2439,0.2439,0.2407,0.2407,0.2406,0,0,0,0,0,0,0,0,0,0,0,0,0,0.2531,0.253,0.2495,0.2495,0.2494,0.2465,0.2465,0.2464,0.244,0.244,0.2439,0.2439,0.2407,0.2407,0.2406,0,0,0,0,0,0,0,0,0,0,0,0,0,0.2509,0.253,0.2495,0.2479,0.2477,0.2465,0.2465,0.2464,0.244,0.244,0.2439,0.2439,0.2408,0.2407,0.2406,0.2407,0,0,0.2403,0.2402,0,0,0,0,0,0,0,0,0.2511,0.2508,0.2482,0.248,0.2478,0.2456,0.2465,0.2445,0.244,0.2454,0.2439,0.2439,0.2424,0.2421,0.2416,0.2406,0.2404,0.2403,0.2402,0.2402,0.2402,0,0,0,0,0,0,0,0.2512,0.2509,0.2483,0.2481,0.2479,0.2473,0.2469,0.2461,0.2441,0.2453,0.2451,0.2448,0.2422,0.2417,0.2415,0.2404,0.2403,0.2402,0.2401,0.2401,0.2392,0.2393,0,0,0,0,0,0,0.2516,0.2511,0.2484,0.2482,0.2494,0.2472,0.2468,0.2463,0.2441,0.2438,0.2448,0.2447,0.2419,0.2417,0.2414,0.2414,0.2402,0.2401,0.24,0.2392,0.2392,0.2393,0,0,0,0,0,0,0.2517,0.2514,0.2485,0.2496,0.2492,0.2472,0.2466,0.2463,0.2458,0.2438,0.2434,0.2447,0.2419,0.2416,0.2409,0.2413,0.2401,0.24,0.2392,0.2392,0.2393,0.2415,0,0,0,0,0,0,0.2518,0.2515,0.2515,0.2496,0.2491,0.2481,0.2467,0.2463,0.2456,0.2454,0.2435,0.2432,0.2418,0.2411,0.2408,0.2411,0.2399,0.2391,0.2392,0.2392,0.2413,0.2416,0.2418,0,0,0,0,0,0.252,0.2523,0.2516,0.2512,0.2492,0.2482,0.2479,0.2463,0.2457,0.2457,0.2444,0.2432,0.2413,0.241,0.2407,0.241,0.2391,0.2392,0.2392,0.2412,0.2415,0.2418,0,0,0,0,0,0,0.2543,0.252,0.2512,0.2509,0.2497,0.2478,0.2478,0.2467,0.2457,0.2455,0.2436,0.2432,0.2428,0.2418,0.2416,0.241,0.24,0.24,0.2417,0.2419,0.2421,0.2424,0.2398,0,0,0,0,0,0.2547,0.2541,0.2522,0.2521,0.2516,0.2498,0.2493,0.2482,0.2469,0.2464,0.245,0.2438,0.2429,0.2423,0.2414,0.2412,0.2407,0.2412,0.2414,0.2416,0.2417,0.2414,0.2416,0.2395,0.2395,0.2395,0,0,0.2557,0.2544,0.2541,0.2525,0.2515,0.2509,0.2494,0.2488,0.2483,0.2463,0.2456,0.2446,0.243,0.2426,0.2423,0.2418,0.2421,0.2417,0.2419,0.2418,0.2415,0.2417,0.2419,0.2396,0.2396,0.2395,0,0,0.2572,0.2561,0.2559,0.255,0.2534,0.2522,0.2522,0.2504,0.2496,0.2489,0.2474,0.2467,0.2452,0.2442,0.2435,0.2445,0.2433,0.2442,0.2453,0.2451,0.2453,0.2454,0.2457,0.2459,0.2442,0.2442,0.2442,0,0.2586,0.2576,0.256,0.2555,0.2548,0.2529,0.2527,0.2518,0.2501,0.2496,0.249,0.2471,0.2459,0.2452,0.2454,0.2449,0.2448,0.2444,0.2454,0.2455,0.2456,0.2459,0.246,0.2444,0.2443,0.2443,0.2443,0,0.2594,0.2587,0.2587,0.2571,0.2564,0.2561,0.2543,0.2538,0.2527,0.2516,0.2508,0.2494,0.2481,0.2479,0.2468,0.247,0.2467,0.2458,0.2447,0.246,0.2462,0.2463,0.2445,0.2445,0.2445,0.2444,0,0,0.2623,0.2597,0.2597,0.259,0.2571,0.2566,0.2561,0.2548,0.2544,0.2532,0.2528,0.2515,0.2506,0.2498,0.2486,0.2485,0.2493,0.2476,0.2475,0.2479,0.2493,0.25,0.2502,0.2485,0.2485,0.2486,0.2494,0,0.2634,0.2625,0.261,0.2605,0.2599,0.2581,0.2577,0.2565,0.2553,0.2546,0.2533,0.2524,0.2514,0.2509,0.2506,0.2493,0.2495,0.2492,0.248,0.248,0.2485,0.2503,0.251,0.2519,0.2495,0.2495,0.2495,0,0.2647,0.2636,0.2631,0.2613,0.261,0.2606,0.2593,0.2586,0.2572,0.2564,0.2555,0.2542,0.2535,0.2525,0.2516,0.2513,0.2507,0.25,0.25,0.2498,0.2488,0.2502,0.2522,0.2523,0.2497,0.2497,0.2496,0,0.2668,0.2653,0.2648,0.2641,0.262,0.2618,0.2609,0.2594,0.2587,0.2576,0.2571,0.2559,0.2552,0.2543,0.2527,0.2522,0.2518,0.2508,0.2511,0.2512,0.2511,0.2512,0.2531,0.2508,0.2508,0.2508,0.2508,0,0.2683,0.2681,0.2657,0.2654,0.265,0.2632,0.2629,0.2618,0.2605,0.2599,0.2583,0.2577,0.2556,0.2548,0.2535,0.2529,0.2526,0.2519,0.2515,0.252,0.2521,0.2516,0.2515,0.2508,0.2508,0.2508,0.2508,0,0.2706,0.2691,0.2684,0.2664,0.2659,0.2657,0.264,0.2635,0.2623,0.2616,0.2613,0.2593,0.2583,0.2566,0.255,0.2541,0.2537,0.2531,0.2542,0.254,0.2544,0.2544,0.2561,0.2562,0.2539,0.2539,0.2539,0,0.2717,0.2715,0.2694,0.2689,0.2681,0.2673,0.2666,0.2648,0.2641,0.2625,0.2622,0.2611,0.26,0.2584,0.2568,0.2556,0.255,0.2557,0.2548,0.2553,0.255,0.255,0.255,0.2559,0.2559,0.256,0.256,0,0.2737,0.2729,0.272,0.2708,0.2701,0.269,0.2679,0.2676,0.2655,0.2648,0.2638,0.263,0.2614,0.2602,0.2587,0.2577,0.2565,0.2563,0.2563,0.2568,0.2574,0.257,0.2548,0.2562,0.2562,0.2562,0.2562,0.2562,0.2754,0.2751,0.2737,0.2727,0.2716,0.2706,0.2701,0.2688,0.2679,0.2665,0.2655,0.2645,0.2629,0.2609,0.2599,0.259,0.2585,0.2585,0.2585,0.2585,0.2587,0.2575,0.2588,0.2587,0.2587,0.2587,0.2587,0,0.2774,0.2763,0.2754,0.2739,0.2731,0.2721,0.2707,0.2701,0.2693,0.268,0.267,0.2657,0.2646,0.2629,0.2616,0.2612,0.2606,0.2609,0.2609,0.2607,0.2593,0.2594,0.2614,0.2614,0.2614,0.2614,0.2614,0.2614,0.2783,0.2777,0.2767,0.2756,0.2745,0.2735,0.2729,0.2719,0.2708,0.2695,0.2686,0.2675,0.266,0.2645,0.2634,0.2629,0.2625,0.263,0.2624,0.2611,0.2608,0.2606,0.2607,0.2629,0.2629,0.2638,0.2639,0.2639]}]]